QPF
0.00 0.01 0.02 0.02 0.03 0.05 0.05 0.06 0.06 0.09 0.09 0.09 0.10 0.10 0.08 0.07 0.05 0.04 0.02 0.02 0.01 0.01 0.01 0.01 0.01 0.00 0.00 0.00 0.01 0.00 0.00 0.00 0.00 0.00 0.00 0.00 0.00 0.00 0.00 0.00 0.00 0.00 0.00
0.00 0.01 0.01 0.01 0.02 0.03 0.05 0.06 0.07 0.09 0.08 0.08 0.10 0.12 0.12 0.10 0.09 0.07 0.04 0.03 0.02 0.02 0.02 0.01 0.01 0.00 0.00 0.00 0.00 0.00 0.00 0.00 0.00 0.00 0.00 0.00 0.00 0.00 0.00 0.00 0.00 0.00 0.00
0.00 0.00 0.01 0.01 0.02 0.03 0.04 0.05 0.05 0.06 0.07 0.10 0.11 0.12 0.13 0.13 0.11 0.08 0.05 0.04 0.04 0.03 0.02 0.02 0.01 0.01 0.01 0.00 0.00 0.00 0.00 0.01 0.00 0.00 0.01 0.01 0.01 0.00 0.00 0.00 0.00 0.00 0.00
0.00 0.00 0.00 0.00 0.01 0.01 0.01 0.02 0.03 0.04 0.05 0.06 0.07 0.07 0.08 0.08 0.09 0.10 0.08 0.07 0.05 0.04 0.03 0.03 0.03 0.03 0.02 0.01 0.02 0.02 0.02 0.02 0.01 0.01 0.01 0.01 0.02 0.02 0.01 0.00 0.00 0.00 0.00
0.00 0.00 0.00 0.00 0.00 0.01 0.01 0.01 0.02 0.02 0.02 0.03 0.03 0.04 0.05 0.05 0.07 0.07 0.07 0.07 0.06 0.05 0.05 0.05 0.05 0.04 0.03 0.03 0.03 0.03 0.03 0.03 0.03 0.03 0.03 0.03 0.02 0.02 0.03 0.02 0.01 0.00 0.00
0.00 0.00 0.00 0.00 0.00 0.00 0.01 0.01 0.01 0.01 0.02 0.02 0.03 0.03 0.03 0.03 0.03 0.04 0.05 0.06 0.07 0.06 0.06 0.05 0.05 0.05 0.04 0.03 0.03 0.04 0.04 0.04 0.04 0.04 0.04 0.05 0.04 0.03 0.03 0.04 0.03 0.02 0.02
0.00 0.00 0.00 0.00 0.00 0.00 0.00 0.01 0.01 0.01 0.01 0.02 0.02 0.03 0.03 0.03 0.03 0.03 0.04 0.05 0.06 0.06 0.06 0.06 0.06 0.05 0.05 0.05 0.04 0.04 0.04 0.04 0.04 0.04 0.04 0.04 0.04 0.04 0.04 0.04 0.03 0.03 0.02
0.00 0.00 0.00 0.00 0.00 0.00 0.00 0.00 0.00 0.00 0.01 0.01 0.02 0.02 0.02 0.02 0.02 0.03 0.03 0.03 0.04 0.04 0.06 0.05 0.05 0.05 0.04 0.03 0.03 0.03 0.02 0.02 0.01 0.02 0.02 0.02 0.02 0.03 0.03 0.03 0.03 0.02 0.01
0.00 0.00 0.00 0.00 0.00 0.00 0.00 0.00 0.00 0.00 0.00 0.00 0.01 0.01 0.01 0.01 0.01 0.01 0.02 0.02 0.02 0.03 0.04 0.04 0.04 0.04 0.04 0.03 0.02 0.02 0.02 0.02 0.02 0.02 0.02 0.02 0.02 0.02 0.02 0.02 0.02 0.02 0.01
0.00 0.00 0.00 0.00 0.00 0.00 0.00 0.00 0.00 0.00 0.00 0.00 0.00 0.01 0.01 0.01 0.01 0.01 0.01 0.01 0.01 0.01 0.02 0.02 0.03 0.03 0.03 0.03 0.04 0.04 0.04 0.04 0.04 0.03 0.03 0.02 0.02 0.02 0.02 0.01 0.01 0.02 0.02
0.00 0.00 0.00 0.00 0.00 0.00 0.00 0.00 0.00 0.00 0.00 0.00 0.00 0.00 0.00 0.00 0.00 0.00 0.01 0.00 0.01 0.01 0.01 0.01 0.01 0.02 0.02 0.03 0.03 0.03 0.04 0.03 0.03 0.03 0.02 0.02 0.01 0.01 0.01 0.01 0.01 0.01 0.01
0.00 0.00 0.00 0.00 0.00 0.00 0.00 0.00 0.00 0.00 0.00 0.00 0.00 0.00 0.00 0.00 0.00 0.00 0.00 0.00 0.00 0.00 0.00 0.00 0.01 0.01 0.01 0.01 0.01 0.01 0.02 0.02 0.02 0.02 0.02 0.02 0.02 0.01 0.01 0.01 0.00 0.00 0.00
0.00 0.00 0.00 0.00 0.00 0.00 0.00 0.00 0.00 0.00 0.00 0.00 0.00 0.00 0.00 0.00 0.00 0.00 0.00 0.00 0.00 0.00 0.00 0.00 0.00 0.00 0.00 0.00 0.00 0.01 0.01 0.01 0.01 0.01 0.01 0.01 0.01 0.01 0.00 0.00 0.00 0.00 0.00
0.00 0.00 0.00 0.00 0.00 0.00 0.00 0.00 0.00 0.00 0.00 0.00 0.00 0.00 0.00 0.00 0.00 0.00 0.00 0.00 0.00 0.00 0.00 0.00 0.00 0.00 0.00 0.00 0.00 0.00 0.00 0.00 0.00 0.00 0.00 0.00 0.00 0.00 0.00 0.00 0.00 0.00 0.00
0.00 0.00 0.00 0.00 0.00 0.00 0.00 0.00 0.00 0.00 0.00 0.00 0.00 0.00 0.00 0.00 0.00 0.00 0.00 0.00 0.00 0.00 0.00 0.00 0.00 0.00 0.00 0.00 0.00 0.00 0.00 0.00 0.00 0.00 0.00 0.00 0.00 0.00 0.00 0.00 0.00 0.00 0.00
0.00 0.00 0.00 0.00 0.00 0.00 0.00 0.00 0.00 0.00 0.00 0.00 0.00 0.00 0.00 0.00 0.00 0.00 0.00 0.00 0.00 0.00 0.00 0.00 0.00 0.00 0.00 0.00 0.00 0.00 0.00 0.00 0.00 0.00 0.00 0.00 0.00 0.00 0.00 0.00 0.00 0.00 0.00
0.00 0.00 0.00 0.00 0.00 0.00 0.00 0.00 0.00 0.00 0.00 0.00 0.00 0.00 0.00 0.00 0.00 0.00 0.00 0.00 0.00 0.00 0.00 0.00 0.00 0.00 0.00 0.00 0.00 0.00 0.00 0.00 0.00 0.00 0.00 0.00 0.00 0.00 0.00 0.00 0.00 0.00 0.00
0.00 0.00 0.00 0.00 0.00 0.00 0.00 0.00 0.00 0.00 0.00 0.00 0.00 0.00 0.00 0.00 0.00 0.00 0.00 0.00 0.00 0.00 0.00 0.00 0.00 0.00 0.00 0.00 0.00 0.00 0.00 0.00 0.00 0.00 0.00 0.00 0.00 0.00 0.00 0.00 0.00 0.00 0.00
0.00 0.00 0.00 0.00 0.00 0.00 0.00 0.00 0.00 0.00 0.00 0.00 0.00 0.00 0.00 0.00 0.00 0.00 0.00 0.00 0.00 0.00 0.00 0.00 0.00 0.00 0.00 0.00 0.00 0.00 0.00 0.00 0.00 0.00 0.00 0.00 0.00 0.00 0.00 0.00 0.00 0.00 0.00
0.00 0.00 0.00 0.00 0.00 0.00 0.00 0.00 0.00 0.00 0.00 0.00 0.00 0.00 0.00 0.00 0.00 0.00 0.00 0.00 0.00 0.00 0.00 0.00 0.00 0.00 0.00 0.00 0.00 0.00 0.00 0.00 0.00 0.00 0.00 0.00 0.00 0.00 0.00 0.00 0.00 0.00 0.00
0.00 0.00 0.00 0.00 0.00 0.00 0.00 0.00 0.00 0.00 0.00 0.00 0.00 0.00 0.00 0.00 0.00 0.00 0.00 0.00 0.00 0.00 0.00 0.00 0.00 0.00 0.00 0.00 0.00 0.00 0.00 0.00 0.00 0.00 0.00 0.00 0.00 0.00 0.00 0.00 0.00 0.00 0.00
0.00 0.00 0.00 0.00 0.00 0.00 0.00 0.00 0.00 0.00 0.00 0.00 0.00 0.00 0.00 0.00 0.00 0.00 0.00 0.00 0.00 0.00 0.00 0.00 0.00 0.00 0.00 0.00 0.00 0.00 0.00 0.00 0.00 0.00 0.00 0.00 0.00 0.00 0.00 0.00 0.00 0.00 0.00
0.00 0.00 0.00 0.00 0.00 0.00 0.00 0.00 0.00 0.00 0.00 0.00 0.00 0.00 0.00 0.00 0.00 0.00 0.00 0.00 0.00 0.00 0.00 0.00 0.00 0.00 0.00 0.00 0.00 0.00 0.00 0.00 0.00 0.00 0.00 0.00 0.00 0.00 0.00 0.00 0.00 0.00 0.00
0.01 0.01 0.01 0.00 0.00 0.00 0.00 0.00 0.00 0.00 0.00 0.00 0.00 0.01 0.00 0.00 0.01 0.00 0.00 0.00 0.00 0.00 0.00 0.00 0.00 0.00 0.00 0.00 0.00 0.00 0.00 0.00 0.00 0.00 0.00 0.00 0.00 0.00 0.00 0.00 0.00 0.00 0.00
0.01 0.01 0.01 0.01 0.00 0.00 0.00 0.00 0.00 0.00 0.00 0.00 0.01 0.01 0.01 0.01 0.01 0.01 0.01 0.01 0.00 0.01 0.01 0.00 0.00 0.00 0.00 0.00 0.00 0.00 0.00 0.00 0.00 0.00 0.00 0.00 0.00 0.00 0.00 0.00 0.00 0.00 0.00
0.00 0.00 0.00 0.01 0.01 0.00 0.00 0.00 0.00 0.00 0.00 0.00 0.01 0.01 0.01 0.01 0.01 0.01 0.01 0.01 0.01 0.01 0.01 0.01 0.01 0.00 0.00 0.00 0.00 0.00 0.00 0.00 0.00 0.00 0.00 0.00 0.00 0.00 0.00 0.00 0.00 0.00 0.00
MSLP
1011.11 1011.21 1011.43 1011.76 1012.18 1012.67 1013.21 1013.78 1014.36 1014.95 1015.52 1016.07 1016.57 1017.01 1017.38 1017.67 1017.90 1018.06 1018.20 1018.33 1018.48 1018.68 1018.93 1019.24 1019.58 1019.95 1020.32 1020.65 1020.94 1021.16 1021.32 1021.40 1021.42 1021.39 1021.31 1021.19 1021.05 1020.89 1020.72 1020.57 1020.45 1020.38 1020.37
1011.10 1011.18 1011.38 1011.70 1012.12 1012.62 1013.18 1013.78 1014.39 1014.99 1015.57 1016.11 1016.60 1017.02 1017.36 1017.62 1017.82 1017.96 1018.07 1018.17 1018.30 1018.46 1018.68 1018.94 1019.25 1019.58 1019.92 1020.24 1020.52 1020.76 1020.93 1021.04 1021.09 1021.08 1021.02 1020.90 1020.75 1020.58 1020.41 1020.25 1020.14 1020.09 1020.10
1011.16 1011.24 1011.43 1011.75 1012.16 1012.66 1013.22 1013.82 1014.43 1015.03 1015.60 1016.12 1016.58 1016.97 1017.28 1017.52 1017.69 1017.81 1017.91 1018.00 1018.11 1018.25 1018.42 1018.64 1018.90 1019.18 1019.46 1019.75 1020.01 1020.23 1020.42 1020.55 1020.62 1020.64 1020.60 1020.50 1020.37 1020.22 1020.06 1019.94 1019.87 1019.86 1019.94
1011.26 1011.36 1011.56 1011.87 1012.28 1012.77 1013.31 1013.89 1014.47 1015.05 1015.58 1016.07 1016.50 1016.85 1017.14 1017.37 1017.53 1017.66 1017.76 1017.85 1017.95 1018.07 1018.21 1018.39 1018.58 1018.79 1019.02 1019.24 1019.46 1019.66 1019.83 1019.97 1020.05 1020.09 1020.08 1020.01 1019.91 1019.79 1019.68 1019.61 1019.61 1019.68 1019.84
1011.37 1011.50 1011.73 1012.04 1012.44 1012.91 1013.42 1013.97 1014.51 1015.05 1015.54 1015.99 1016.38 1016.71 1016.98 1017.20 1017.37 1017.52 1017.64 1017.75 1017.86 1017.98 1018.10 1018.22 1018.36 1018.50 1018.65 1018.80 1018.95 1019.10 1019.24 1019.37 1019.45 1019.50 1019.51 1019.47 1019.41 1019.33 1019.28 1019.28 1019.35 1019.51 1019.76
1011.47 1011.66 1011.92 1012.25 1012.63 1013.08 1013.56 1014.06 1014.56 1015.05 1015.50 1015.91 1016.27 1016.58 1016.85 1017.07 1017.27 1017.44 1017.60 1017.74 1017.87 1017.99 1018.10 1018.19 1018.27 1018.34 1018.41 1018.48 1018.56 1018.65 1018.74 1018.83 1018.90 1018.95 1018.97 1018.95 1018.91 1018.88 1018.88 1018.94 1019.08 1019.33 1019.67
1011.57 1011.83 1012.13 1012.47 1012.85 1013.27 1013.72 1014.18 1014.64 1015.09 1015.50 1015.88 1016.22 1016.52 1016.79 1017.03 1017.25 1017.46 1017.66 1017.84 1018.00 1018.13 1018.23 1018.30 1018.33 1018.34 1018.33 1018.33 1018.33 1018.35 1018.38 1018.43 1018.47 1018.51 1018.52 1018.51 1018.50 1018.49 1018.53 1018.64 1018.84 1019.14 1019.55
1011.68 1012.01 1012.35 1012.71 1013.09 1013.49 1013.91 1014.34 1014.77 1015.19 1015.58 1015.94 1016.27 1016.57 1016.84 1017.10 1017.35 1017.59 1017.83 1018.04 1018.23 1018.37 1018.47 1018.52 1018.52 1018.48 1018.41 1018.34 1018.28 1018.23 1018.21 1018.21 1018.22 1018.23 1018.24 1018.23 1018.22 1018.23 1018.29 1018.42 1018.65 1019.00 1019.44
1011.83 1012.21 1012.58 1012.95 1013.33 1013.73 1014.13 1014.55 1014.97 1015.37 1015.75 1016.11 1016.44 1016.74 1017.02 1017.29 1017.56 1017.82 1018.08 1018.31 1018.52 1018.68 1018.78 1018.82 1018.79 1018.72 1018.61 1018.50 1018.38 1018.29 1018.23 1018.19 1018.18 1018.17 1018.16 1018.15 1018.14 1018.16 1018.22 1018.35 1018.59 1018.93 1019.38
1012.01 1012.42 1012.81 1013.19 1013.57 1013.96 1014.37 1014.78 1015.20 1015.61 1016.01 1016.37 1016.71 1017.02 1017.31 1017.58 1017.85 1018.12 1018.37 1018.61 1018.82 1018.98 1019.09 1019.12 1019.09 1019.01 1018.89 1018.75 1018.61 1018.50 1018.41 1018.36 1018.33 1018.31 1018.30 1018.29 1018.28 1018.29 1018.34 1018.47 1018.68 1019.00 1019.42
1012.21 1012.63 1013.02 1013.40 1013.77 1014.17 1014.58 1015.01 1015.45 1015.89 1016.30 1016.69 1017.05 1017.36 1017.65 1017.92 1018.17 1018.42 1018.66 1018.89 1019.09 1019.25 1019.35 1019.39 1019.37 1019.30 1019.18 1019.05 1018.91 1018.80 1018.72 1018.67 1018.64 1018.63 1018.63 1018.62 1018.62 1018.63 1018.68 1018.78 1018.95 1019.22 1019.59
1012.39 1012.79 1013.16 1013.53 1013.90 1014.30 1014.73 1015.19 1015.67 1016.14 1016.59 1017.01 1017.38 1017.71 1017.99 1018.25 1018.48 1018.70 1018.91 1019.12 1019.30 1019.45 1019.55 1019.60 1019.60 1019.55 1019.46 1019.35 1019.24 1019.15 1019.09 1019.06 1019.06 1019.07 1019.09 1019.11 1019.12 1019.14 1019.17 1019.25 1019.39 1019.61 1019.90
1012.49 1012.85 1013.20 1013.56 1013.93 1014.35 1014.81 1015.30 1015.81 1016.33 1016.82 1017.27 1017.67 1018.00 1018.29 1018.52 1018.73 1018.92 1019.11 1019.29 1019.45 1019.59 1019.70 1019.76 1019.78 1019.76 1019.71 1019.64 1019.57 1019.52 1019.49 1019.50 1019.53 1019.58 1019.63 1019.67 1019.70 1019.73 1019.77 1019.83 1019.94 1020.10 1020.33
1012.48 1012.81 1013.13 1013.48 1013.86 1014.29 1014.78 1015.31 1015.87 1016.43 1016.96 1017.45 1017.86 1018.21 1018.50 1018.73 1018.92 1019.10 1019.26 1019.42 1019.57 1019.71 1019.82 1019.90 1019.95 1019.96 1019.94 1019.92 1019.89 1019.88 1019.89 1019.93 1020.00 1020.08 1020.16 1020.24 1020.30 1020.35 1020.40 1020.45 1020.53 1020.65 1020.82
1012.34 1012.64 1012.96 1013.30 1013.70 1014.15 1014.67 1015.24 1015.84 1016.44 1017.00 1017.52 1017.96 1018.33 1018.62 1018.86 1019.06 1019.23 1019.39 1019.55 1019.70 1019.84 1019.97 1020.07 1020.14 1020.18 1020.19 1020.20 1020.20 1020.23 1020.27 1020.34 1020.44 1020.55 1020.66 1020.77 1020.86 1020.93 1020.98 1021.04 1021.10 1021.19 1021.32
1012.12 1012.41 1012.72 1013.08 1013.50 1013.98 1014.53 1015.13 1015.75 1016.37 1016.96 1017.50 1017.97 1018.36 1018.68 1018.94 1019.16 1019.35 1019.53 1019.70 1019.87 1020.03 1020.17 1020.29 1020.37 1020.43 1020.47 1020.49 1020.52 1020.56 1020.63 1020.72 1020.83 1020.96 1021.10 1021.22 1021.33 1021.42 1021.48 1021.54 1021.60 1021.67 1021.76
1011.87 1012.17 1012.51 1012.89 1013.33 1013.84 1014.40 1015.01 1015.64 1016.27 1016.87 1017.42 1017.91 1018.33 1018.68 1018.98 1019.24 1019.47 1019.69 1019.90 1020.09 1020.27 1020.43 1020.56 1020.65 1020.72 1020.77 1020.80 1020.83 1020.88 1020.96 1021.06 1021.18 1021.32 1021.46 1021.60 1021.72 1021.81 1021.89 1021.94 1021.99 1022.05 1022.12
1011.69 1012.02 1012.38 1012.79 1013.26 1013.77 1014.34 1014.94 1015.56 1016.17 1016.76 1017.31 1017.81 1018.25 1018.65 1018.99 1019.30 1019.59 1019.86 1020.11 1020.33 1020.54 1020.71 1020.85 1020.95 1021.01 1021.06 1021.09 1021.12 1021.17 1021.25 1021.35 1021.48 1021.62 1021.77 1021.91 1022.03 1022.13 1022.20 1022.25 1022.29 1022.34 1022.40
1011.68 1012.03 1012.42 1012.85 1013.32 1013.83 1014.38 1014.95 1015.53 1016.11 1016.67 1017.20 1017.69 1018.15 1018.57 1018.97 1019.33 1019.67 1019.99 1020.29 1020.55 1020.77 1020.96 1021.10 1021.19 1021.26 1021.29 1021.32 1021.36 1021.41 1021.49 1021.60 1021.74 1021.89 1022.04 1022.18 1022.30 1022.39 1022.45 1022.49 1022.52 1022.55 1022.59
1011.86 1012.24 1012.64 1013.07 1013.53 1014.01 1014.51 1015.03 1015.55 1016.07 1016.58 1017.08 1017.56 1018.02 1018.47 1018.90 1019.31 1019.69 1020.05 1020.38 1020.67 1020.91 1021.10 1021.24 1021.33 1021.38 1021.42 1021.45 1021.50 1021.57 1021.66 1021.79 1021.95 1022.11 1022.27 1022.42 1022.54 1022.62 1022.67 1022.69 1022.70 1022.71 1022.73
1012.26 1012.64 1013.03 1013.43 1013.85 1014.28 1014.71 1015.15 1015.59 1016.04 1016.49 1016.95 1017.40 1017.86 1018.31 1018.76 1019.20 1019.61 1020.00 1020.35 1020.65 1020.89 1021.08 1021.21 1021.30 1021.36 1021.40 1021.45 1021.52 1021.61 1021.74 1021.91 1022.09 1022.28 1022.46 1022.62 1022.74 1022.82 1022.86 1022.86 1022.85 1022.83 1022.83
1012.83 1013.17 1013.52 1013.87 1014.22 1014.57 1014.92 1015.27 1015.63 1016.00 1016.38 1016.79 1017.21 1017.64 1018.09 1018.55 1018.99 1019.42 1019.81 1020.17 1020.46 1020.70 1020.88 1021.01 1021.09 1021.16 1021.22 1021.30 1021.40 1021.54 1021.72 1021.93 1022.15 1022.38 1022.58 1022.76 1022.89 1022.96 1022.99 1022.97 1022.94 1022.90 1022.88
1013.48 1013.75 1014.03 1014.29 1014.56 1014.81 1015.07 1015.33 1015.61 1015.91 1016.23 1016.59 1016.97 1017.38 1017.82 1018.26 1018.70 1019.12 1019.51 1019.85 1020.13 1020.35 1020.52 1020.64 1020.74 1020.82 1020.91 1021.02 1021.17 1021.36 1021.59 1021.84 1022.11 1022.37 1022.60 1022.79 1022.93 1023.00 1023.03 1023.00 1022.96 1022.90 1022.86
1014.13 1014.31 1014.48 1014.65 1014.81 1014.97 1015.13 1015.31 1015.52 1015.75 1016.03 1016.34 1016.70 1017.09 1017.50 1017.93 1018.35 1018.75 1019.11 1019.43 1019.69 1019.89 1020.05 1020.17 1020.28 1020.38 1020.50 1020.65 1020.84 1021.08 1021.34 1021.64 1021.94 1022.22 1022.47 1022.67 1022.82 1022.90 1022.92 1022.90 1022.85 1022.79 1022.74
1014.69 1014.77 1014.83 1014.89 1014.95 1015.01 1015.10 1015.21 1015.35 1015.54 1015.78 1016.07 1016.40 1016.77 1017.17 1017.57 1017.97 1018.34 1018.67 1018.96 1019.20 1019.39 1019.54 1019.66 1019.78 1019.90 1020.05 1020.23 1020.45 1020.72 1021.01 1021.32 1021.63 1021.92 1022.17 1022.37 1022.51 1022.60 1022.63 1022.61 1022.57 1022.53 1022.49
1015.14 1015.10 1015.06 1015.02 1014.98 1014.97 1014.99 1015.04 1015.15 1015.31 1015.52 1015.79 1016.11 1016.46 1016.83 1017.21 1017.58 1017.93 1018.23 1018.49 1018.71 1018.88 1019.03 1019.16 1019.28 1019.42 1019.59 1019.79 1020.02 1020.29 1020.58 1020.88 1021.17 1021.44 1021.68 1021.86 1021.99 1022.08 1022.12 1022.13 1022.11 1022.10 1022.09
Thickness
5650 5654 5658 5663 5667 5670 5673 5675 5676 5677 5675 5674 5673 5672 5673 5673 5673 5673 5673 5673 5672 5671 5670 5669 5668 5667 5665 5664 5663 5661 5658 5656 5654 5652 5653 5655 5655 5653 5651 5648 5645 5641 5636
5641 5646 5651 5655 5660 5663 5666 5668 5669 5670 5670 5669 5669 5669 5668 5668 5668 5667 5666 5666 5666 5665 5665 5664 5663 5662 5661 5660 5659 5656 5653 5652 5649 5647 5646 5647 5651 5651 5647 5643 5639 5635 5631
5637 5641 5645 5648 5651 5655 5658 5660 5662 5663 5663 5663 5661 5660 5660 5660 5659 5659 5660 5660 5660 5659 5659 5659 5658 5657 5656 5655 5654 5651 5648 5646 5645 5643 5640 5637 5640 5644 5643 5638 5633 5628 5624
5631 5635 5638 5641 5644 5647 5649 5651 5653 5655 5656 5656 5655 5655 5654 5654 5655 5655 5654 5653 5653 5653 5652 5652 5652 5651 5650 5650 5649 5647 5644 5642 5640 5637 5635 5634 5634 5629 5631 5631 5627 5621 5617
5625 5628 5631 5633 5636 5638 5639 5641 5644 5646 5647 5648 5649 5648 5648 5648 5648 5647 5647 5647 5646 5645 5645 5645 5645 5645 5644 5643 5642 5640 5638 5637 5635 5633 5629 5626 5624 5621 5617 5619 5619 5615 5609
5618 5621 5623 5624 5625 5627 5628 5631 5634 5636 5638 5639 5640 5641 5641 5640 5639 5639 5639 5639 5639 5638 5637 5637 5637 5636 5636 5636 5634 5633 5631 5630 5628 5626 5624 5621 5618 5615 5612 5610 5611 5608 5603
5610 5613 5614 5616 5617 5618 5619 5622 5624 5626 5628 5629 5631 5631 5632 5632 5632 5633 5632 5631 5631 5630 5629 5628 5629 5628 5627 5627 5626 5624 5623 5622 5620 5619 5617 5614 5612 5609 5606 5604 5603 5600 5594
5604 5605 5608 5608 5610 5610 5611 5613 5615 5616 5617 5619 5620 5620 5621 5621 5622 5623 5623 5623 5622 5621 5619 5619 5619 5619 5618 5617 5617 5616 5614 5613 5612 5610 5608 5606 5603 5600 5597 5595 5593 5590 5586
5596 5598 5599 5600 5601 5602 5602 5604 5605 5606 5606 5607 5608 5609 5609 5609 5609 5610 5610 5610 5610 5609 5609 5609 5609 5609 5608 5608 5607 5606 5605 5603 5602 5599 5597 5594 5592 5589 5587 5584 5582 5580 5579
5588 5589 5591 5591 5592 5592 5592 5594 5595 5595 5595 5596 5596 5596 5597 5597 5597 5597 5597 5597 5597 5597 5597 5597 5598 5597 5597 5596 5596 5595 5594 5593 5591 5588 5586 5584 5581 5578 5575 5573 5570 5568 5568
5579 5581 5581 5582 5582 5582 5582 5583 5583 5584 5584 5585 5585 5585 5585 5584 5584 5584 5584 5584 5585 5585 5585 5585 5585 5585 5585 5584 5584 5583 5582 5581 5579 5577 5575 5572 5569 5567 5563 5560 5558 5555 5553
5569 5571 5571 5572 5572 5573 5573 5573 5573 5574 5573 5573 5573 5573 5572 5572 5572 5572 5571 5571 5572 5572 5572 5573 5573 5572 5572 5572 5572 5571 5569 5568 5566 5564 5562 5560 5557 5554 5550 5548 5545 5542 5539
5560 5561 5562 5563 5564 5564 5564 5564 5563 5563 5562 5562 5562 5561 5561 5560 5560 5559 5558 5558 5558 5558 5558 5559 5559 5559 5558 5558 5558 5557 5555 5554 5552 5550 5548 5546 5544 5542 5538 5535 5532 5529 5526
5553 5555 5556 5556 5556 5556 5555 5554 5554 5552 5551 5550 5550 5549 5548 5547 5546 5546 5545 5545 5545 5545 5545 5545 5545 5545 5544 5544 5543 5543 5542 5540 5538 5535 5534 5532 5531 5529 5526 5522 5519 5517 5515
5547 5548 5549 5550 5548 5547 5546 5544 5543 5541 5540 5539 5538 5537 5535 5534 5533 5533 5532 5532 5532 5531 5531 5531 5531 5530 5530 5530 5529 5529 5528 5526 5524 5522 5520 5518 5516 5514 5513 5510 5507 5505 5503
5543 5543 5543 5543 5542 5540 5538 5535 5534 5532 5530 5529 5528 5526 5524 5523 5522 5521 5520 5519 5519 5519 5518 5518 5518 5518 5517 5516 5515 5515 5514 5513 5511 5509 5507 5505 5503 5501 5499 5496 5494 5492 5491
5540 5539 5538 5537 5535 5534 5532 5529 5526 5523 5521 5519 5517 5515 5514 5512 5511 5509 5508 5508 5507 5507 5506 5506 5506 5505 5504 5503 5502 5501 5501 5500 5498 5497 5495 5493 5490 5488 5486 5484 5481 5479 5476
5535 5534 5533 5531 5529 5526 5523 5521 5517 5515 5512 5511 5508 5506 5504 5502 5500 5499 5498 5497 5495 5495 5494 5494 5493 5493 5491 5490 5489 5488 5488 5486 5485 5484 5483 5481 5479 5476 5475 5473 5470 5468 5465
5529 5528 5526 5524 5521 5518 5515 5512 5509 5506 5504 5502 5500 5497 5495 5493 5491 5489 5488 5486 5484 5483 5483 5482 5482 5481 5480 5478 5477 5476 5475 5474 5473 5472 5471 5470 5468 5466 5464 5462 5460 5457 5455
5518 5517 5515 5514 5512 5509 5506 5504 5502 5499 5497 5495 5492 5489 5487 5485 5483 5481 5478 5476 5475 5473 5473 5471 5471 5471 5470 5468 5466 5465 5466 5465 5463 5462 5460 5459 5458 5456 5454 5452 5450 5448 5446
5505 5505 5504 5504 5502 5499 5497 5496 5494 5492 5490 5486 5483 5481 5479 5477 5475 5472 5469 5467 5466 5464 5463 5462 5461 5460 5460 5458 5457 5456 5456 5456 5455 5453 5452 5450 5448 5446 5444 5442 5441 5438 5435
5493 5493 5494 5493 5491 5489 5488 5488 5486 5484 5480 5478 5476 5473 5471 5469 5466 5464 5461 5459 5458 5456 5455 5454 5453 5452 5451 5450 5449 5448 5447 5446 5445 5444 5443 5441 5439 5437 5435 5433 5431 5428 5425
5482 5482 5483 5482 5480 5480 5480 5480 5478 5475 5473 5471 5469 5466 5464 5462 5459 5457 5455 5452 5451 5450 5450 5448 5447 5445 5443 5443 5441 5441 5439 5438 5437 5436 5434 5432 5430 5427 5426 5423 5421 5418 5416
5472 5472 5473 5473 5473 5471 5470 5471 5470 5468 5466 5465 5462 5460 5457 5455 5453 5450 5449 5447 5446 5445 5444 5442 5441 5439 5437 5436 5434 5433 5432 5430 5428 5427 5425 5423 5420 5418 5417 5415 5412 5410 5407
5463 5463 5464 5465 5465 5464 5463 5463 5462 5461 5460 5458 5456 5454 5451 5449 5447 5445 5444 5443 5443 5442 5440 5438 5436 5434 5433 5432 5429 5428 5426 5424 5422 5419 5417 5415 5413 5412 5410 5408 5405 5402 5399
5455 5455 5456 5457 5457 5457 5457 5456 5455 5455 5454 5453 5451 5449 5446 5444 5442 5440 5438 5437 5436 5435 5433 5432 5430 5429 5427 5425 5424 5422 5419 5417 5414 5412 5411 5410 5408 5407 5405 5402 5399 5395 5392